Погода в Дегтяном

Россия / Рязанская область     54°26′14″N   40°39′06″E
темп.,
°C
ветер,
м/с
пор.,
м/с
влажн.,
%
обл.,
%
осадки,
мм/ч
давл.,
гПа
погр.,
м
9 мая, вс
вс900:00+12ю71392100 0.3 1003605
03:00+11юз4889100 0.6 1004401
06:00+10зюз2695100 0.2 1004311
09:00+9з4795100 0.8 1005433
12:00+9зсз4589100 3.1 1007482
15:00+7зсз5790100 3.3 1010586
18:00+5зсз5994100 0.1 1013574
21:00+4ссз61197100 0.9 1016736
10 мая, пн
пн1000:00+5ссз71394100 1.1 1018802
03:00+5с71485100 1.5 1020884
06:00+5ссз61483100 0.1 1022669
09:00+7с71375100 0.1 1024755
12:00+12ссв7952100 0.0 10241240
15:00+13ссв71054100 0.0 10241277
18:00+11св61165100 0.0 1025803
21:00+9ссв61373100 0.0 1026486
11 мая, вт
вт1100:00+8ссв51382100 0.0 1026428
03:00+8св61383100 0.0 1026414
06:00+8св6148598 0.1 1026423
09:00+13св8127464 0.1 1026562
12:00+18всв796669 0.0 1026924
15:00+19всв5867100 0.0 10251099
18:00+18всв5107833 0.3 1025548
21:00+14всв5129321 1.2 1025312
12 мая, ср
ср1200:00+13всв5149480 0.3 1025365
03:00+11с1194100 0.3 102413
06:00+12в269499 0.1 1025177
09:00+13вюв3695100 1.3 1025407
12:00+16в498697 0.7 1024743
15:00+17в61184100 1.2 1024970
18:00+15вюв71585100 0.3 1023753
21:00+14вюв4128662 0.3 1023422
13 мая, чт
чт1300:00+14вюв5138723 0.0 1022430
03:00+13в41092100 0.1 1022285
06:00+14вюв5128958 0.0 1022373
09:00+17юв587145 0.3 1021622
12:00+16вюв377896 0.0 1021294
15:00+16вюв3982100 0.1 1021451
18:00+18юв3782100 0.0 1020363
21:00+16юв410901 0.3 1020280